Pecos, TX

11:03 AM CDT on April 30, 2017 (GMT -0500)
Pecos Municipal

Weather History for KPEQ - September, 2013

Change the Weather History Date:

Thursday, September 26, 2013

  Actual Average Record
Temperature  
Mean Temperature 78 °F -  
Max Temperature 98 °F 88 °F 104 °F (1951)
Min Temperature 59 °F 56 °F 43 °F (1984)
Cooling Degree Days 14    
Growing Degree Days 28 (Base 50)    
Moisture  
Dew Point 52 °F    
Average Humidity 43    
Maximum Humidity 77    
Minimum Humidity 18    
Precipitation  
Precipitation 0.00 in - - ()
Sea Level Pressure  
Sea Level Pressure 29.79 in    
Wind  
Wind Speed 7 mph (East)    
Max Wind Speed 24 mph    
Max Gust Speed 32 mph    
Visibility 10 miles    
Events      
Averages and records for this station are not official NWS values.
T = Trace of Precipitation, MM = Missing Value Source: NWS Daily Summary

Daily Weather History Graph

Daily Weather History Graph

Search for Another Location

Airport or City:

Trip Planner

Search our weather history database for the weather conditions in past years. The results will help you decide how hot, cold, wet, or windy it might be!

Date:

Astronomy

Sep. 26, 2013 Rise Set
Actual Time 7:44 AM CDT 7:45 PM CDT
Civil Twilight 7:20 AM CDT 8:09 PM CDT
Nautical Twilight 6:52 AM CDT 8:37 PM CDT
Astronomical Twilight 6:24 AM CDT 9:05 PM CDT
Moon 12:14 AM CDT (9/26) 2:19 PM CDT (9/26)
Length of Visible Light 12h 48m
Length of Day
12h 00m
Waning Gibbous, 54% of the Moon is Illuminated
Sep 26
Waning Gibbous
Sep 26
Last Quarter
Oct 4
New
Oct 11
First Quarter
Oct 18
Full

Hourly Weather History & Observations

Time (CDT) Temp. Heat Index Dew Point Humidity Pressure Visibility Wind Dir Wind Speed Gust Speed Precip Events Conditions
12:15 AM 73.9 °F - 50.5 °F 44% 29.78 in 10.0 mi SE 10.4 mph - N/A   Clear
12:35 AM 72.9 °F - 51.1 °F 46% 29.78 in 10.0 mi SE 9.2 mph - N/A   Clear
12:55 AM 72.3 °F - 51.1 °F 47% 29.78 in 10.0 mi SE 8.1 mph - N/A   Clear
1:15 AM 70.7 °F - 51.1 °F 50% 29.78 in 10.0 mi SE 6.9 mph - N/A   Clear
1:35 AM 68.9 °F - 50.9 °F 53% 29.77 in 10.0 mi SE 6.9 mph - N/A   Clear
1:55 AM 67.5 °F - 50.9 °F 55% 29.77 in 10.0 mi ESE 6.9 mph - N/A   Clear
2:15 AM 66.6 °F - 50.9 °F 57% 29.77 in 10.0 mi East 6.9 mph - N/A   Clear
2:35 AM 66.7 °F - 50.9 °F 57% 29.78 in 10.0 mi East 5.8 mph - N/A   Clear
2:55 AM 67.5 °F - 51.6 °F 57% 29.77 in 10.0 mi East 6.9 mph - N/A   Clear
3:15 AM 65.8 °F - 51.3 °F 59% 29.78 in 10.0 mi East 3.5 mph - N/A   Clear
3:35 AM 66.0 °F - 51.8 °F 60% 29.78 in 10.0 mi Calm Calm - N/A   Clear
3:55 AM 64.0 °F - 51.3 °F 63% 29.78 in 10.0 mi Calm Calm - N/A   Clear
4:15 AM 63.1 °F - 51.1 °F 65% 29.77 in 10.0 mi Calm Calm - N/A   Clear
4:35 AM 64.0 °F - 51.3 °F 63% 29.78 in 10.0 mi NE 3.5 mph - N/A   Clear
4:55 AM 62.8 °F - 51.8 °F 67% 29.78 in 10.0 mi ENE 3.5 mph - N/A   Clear
5:15 AM 62.1 °F - 51.8 °F 69% 29.77 in 10.0 mi ENE 5.8 mph - N/A   Clear
5:35 AM 62.6 °F - 52.2 °F 69% 29.78 in 10.0 mi East 3.5 mph - N/A   Clear
5:55 AM 61.0 °F - 51.6 °F 71% 29.78 in 10.0 mi East 3.5 mph - N/A   Clear
6:15 AM 60.8 °F - 51.8 °F 72% 29.79 in 10.0 mi East 5.8 mph - N/A   Clear
6:35 AM 60.4 °F - 51.8 °F 73% 29.79 in 10.0 mi East 4.6 mph - N/A   Clear
6:55 AM 60.3 °F - 52.3 °F 75% 29.79 in 10.0 mi East 5.8 mph - N/A   Clear
7:15 AM 61.0 °F - 53.1 °F 75% 29.80 in 10.0 mi ENE 3.5 mph - N/A   Clear
7:35 AM 60.3 °F - 52.7 °F 76% 29.80 in 10.0 mi ENE 4.6 mph - N/A   Clear
7:55 AM 59.5 °F - 52.3 °F 77% 29.81 in 10.0 mi Calm Calm - N/A   Clear
8:15 AM 61.0 °F - 53.1 °F 75% 29.82 in 10.0 mi Calm Calm - N/A   Clear
8:35 AM 64.4 °F - 54.1 °F 69% 29.83 in 10.0 mi Calm Calm - N/A   Clear
8:55 AM 66.7 °F - 54.5 °F 65% 29.84 in 10.0 mi East 3.5 mph - N/A   Clear
9:15 AM 69.6 °F - 54.5 °F 59% 29.84 in 10.0 mi ENE 3.5 mph - N/A   Clear
9:35 AM 71.4 °F - 54.5 °F 55% 29.84 in 10.0 mi ENE 4.6 mph - N/A   Clear
9:55 AM 74.7 °F - 54.0 °F 48% 29.85 in 10.0 mi East 3.5 mph - N/A   Clear
10:15 AM 76.1 °F - 54.0 °F 46% 29.86 in 10.0 mi Calm Calm - N/A   Clear
10:35 AM 78.4 °F - 53.2 °F 42% 29.86 in 10.0 mi Calm Calm - N/A   Clear
10:55 AM 80.4 °F 80.1 °F 53.6 °F 39% 29.86 in 10.0 mi Calm Calm - N/A   Clear
11:15 AM 82.6 °F 81.5 °F 53.1 °F 36% 29.86 in 10.0 mi Calm Calm - N/A   Clear
11:35 AM 84.4 °F - 52.3 °F 33% 29.86 in 10.0 mi North 4.6 mph - N/A   Clear
11:55 AM 86.0 °F - 51.4 °F 30% 29.85 in 10.0 mi NE 3.5 mph - N/A   Clear
12:15 PM 88.2 °F - 48.4 °F 25% 29.85 in 10.0 mi North 5.8 mph - N/A   Clear
12:35 PM 89.2 °F - 47.3 °F 23% 29.85 in 10.0 mi North 4.6 mph - N/A   Clear
12:55 PM 90.1 °F - 47.1 °F 23% 29.84 in 10.0 mi Calm Calm - N/A   Clear
1:15 PM 91.8 °F - 47.5 °F 22% 29.83 in 10.0 mi WNW 3.5 mph - N/A   Clear
1:35 PM 92.8 °F - 48.0 °F 21% 29.82 in 10.0 mi Calm Calm - N/A   Clear
1:55 PM 94.3 °F - 48.0 °F 21% 29.81 in 10.0 mi SW 3.5 mph - N/A   Clear
2:15 PM 95.0 °F - 48.0 °F 20% 29.80 in 10.0 mi NNE 3.5 mph - N/A   Clear
2:35 PM 96.4 °F - 46.9 °F 18% 29.79 in 10.0 mi ENE 4.6 mph - N/A   Clear
2:55 PM 96.4 °F - 46.9 °F 18% 29.78 in 10.0 mi Calm Calm - N/A   Clear
3:15 PM 96.8 °F - 48.4 °F 19% 29.77 in 10.0 mi East 9.2 mph 18.4 mph N/A   Clear
3:35 PM 96.8 °F - 47.7 °F 19% 29.77 in 10.0 mi SSE 3.5 mph - N/A   Clear
3:55 PM 98.1 °F - 47.8 °F 18% 29.76 in 10.0 mi East 6.9 mph 17.3 mph N/A   Clear
4:15 PM 97.9 °F - 47.3 °F 18% 29.75 in 10.0 mi SE 4.6 mph - N/A   Clear
4:35 PM 97.9 °F - 47.3 °F 18% 29.75 in 10.0 mi East 16.1 mph - N/A   Clear
4:55 PM 97.7 °F - 47.5 °F 18% 29.75 in 10.0 mi East 9.2 mph - N/A   Clear
5:15 PM 97.9 °F - 50.9 °F 20% 29.74 in 10.0 mi East 11.5 mph 17.3 mph N/A   Clear
5:35 PM 97.2 °F - 50.7 °F 21% 29.73 in 10.0 mi NE 9.2 mph 19.6 mph N/A   Clear
5:55 PM 96.6 °F - 50.0 °F 21% 29.72 in 10.0 mi North 6.9 mph - N/A   Clear
6:15 PM 96.8 °F - 47.7 °F 19% 29.72 in 10.0 mi NE 4.6 mph - N/A   Clear
6:35 PM 95.5 °F - 51.8 °F 23% 29.71 in 10.0 mi East 18.4 mph 24.2 mph N/A   Clear
6:55 PM 93.6 °F - 52.5 °F 25% 29.71 in 10.0 mi East 24.2 mph 32.2 mph N/A   Clear
7:15 PM 91.4 °F - 52.9 °F 27% 29.71 in 10.0 mi East 24.2 mph 29.9 mph N/A   Clear
7:35 PM 90.3 °F 87.9 °F 53.2 °F 28% 29.72 in 10.0 mi East 13.8 mph 29.9 mph N/A   Clear
7:55 PM 88.7 °F - 52.9 °F 29% 29.72 in 10.0 mi East 19.6 mph 23.0 mph N/A   Clear
8:15 PM 87.4 °F 85.3 °F 53.1 °F 31% 29.73 in 10.0 mi ESE 16.1 mph 23.0 mph N/A   Clear
8:35 PM 86.7 °F 84.7 °F 53.2 °F 32% 29.73 in 10.0 mi ESE 21.9 mph 27.6 mph N/A   Clear
8:55 PM 85.6 °F - 52.9 °F 32% 29.74 in 10.0 mi ESE 20.7 mph 25.3 mph N/A   Clear
9:15 PM 84.4 °F 82.8 °F 53.1 °F 34% 29.75 in 10.0 mi SE 18.4 mph 26.5 mph N/A   Clear
9:35 PM 82.8 °F 81.9 °F 54.7 °F 38% 29.76 in 10.0 mi SE 17.3 mph 24.2 mph N/A   Clear
9:55 PM 81.9 °F 81.6 °F 56.8 °F 42% 29.77 in 10.0 mi SE 23.0 mph 27.6 mph N/A   Clear
10:15 PM 80.6 °F 80.8 °F 57.2 °F 45% 29.78 in 10.0 mi SE 15.0 mph - N/A   Clear
10:35 PM 79.9 °F - 57.7 °F 47% 29.79 in 10.0 mi SE 16.1 mph 24.2 mph N/A   Clear
10:55 PM 79.2 °F - 58.1 °F 48% 29.79 in 10.0 mi SE 15.0 mph 20.7 mph N/A   Clear
11:15 PM 78.8 °F - 58.5 °F 50% 29.80 in 10.0 mi ESE 11.5 mph 20.7 mph N/A   Clear
11:35 PM 77.9 °F - 59.0 °F 52% 29.81 in 10.0 mi ESE 9.2 mph - N/A   Clear
11:55 PM 77.0 °F - 59.2 °F 54% 29.81 in 10.0 mi ESE 9.2 mph - N/A   Clear